Location: Asheville, NC
(35.6000°N, 82.5500°W)
Time: 11:39:17
(UTC-04:00)

XW-2D - Pass Details

Date: 03 January 2018
Orbit: 510 x 530 km, 97.5° (Epoch: 23 June)

Event Time Altitude Azimuth Distance (km) Brightness Sun altitude
Rises 06:03:16 0° 22° (NNE) 2,664 ? -19.2°
Reaches altitude 10° 06:05:32 10° 31° (NNE) 1,767 ? -18.7°
Maximum altitude 06:09:02 34° 98° (E) 868 ? -18.0°
Drops below altitude 10° 06:12:29 10° 164° (SSE) 1,742 ? -17.3°
Sets 06:14:41 0° 174° (S) 2,621 ? -16.9°
